| time (UTC) | temp F | wind direction | speed MPH | gust MPH | rain 1hr in | rain 24hr in | rain mn in | humidity % | barometer mb |
| 20260506123732 | 71 | 231 | 5.0 | 14.0 | 0.00 | 0.00 | 0.00 | 77 | 1016.4 |
| 20260506123234 | 71 | 148 | 5.0 | 13.0 | 0.00 | 0.00 | 0.00 | 77 | 1016.5 |
| 20260506122734 | 71 | 214 | 6.0 | 13.0 | 0.00 | 0.00 | 0.00 | 77 | 1016.5 |
| 20260506122239 | 71 | 211 | 6.0 | 13.0 | 0.00 | 0.00 | 0.00 | 77 | 1016.5 |
| 20260506121949 | 71 | 162 | 5.0 | 13.0 | 0.00 | 0.00 | 0.00 | 77 | 1016.4 |
| 20260506121233 | 71 | 170 | 5.0 | 13.0 | 0.00 | 0.00 | 0.00 | 77 | 1016.4 |
| 20260506120732 | 70 | 236 | 5.0 | 14.0 | 0.00 | 0.00 | 0.00 | 77 | 1016.4 |
| 20260506120231 | 70 | 225 | 6.0 | 14.0 | 0.00 | 0.00 | 0.00 | 77 | 1016.4 |
| 20260506115731 | 70 | 207 | 6.0 | 12.0 | 0.00 | 0.00 | 0.00 | 77 | 1016.2 |
| 20260506115231 | 70 | 143 | 6.0 | 12.0 | 0.00 | 0.00 | 0.00 | 77 | 1016.2 |
| 20260506114731 | 69 | 153 | 6.0 | 14.0 | 0.00 | 0.00 | 0.00 | 78 | 1016.3 |
| 20260506114232 | 69 | 179 | 7.0 | 14.0 | 0.00 | 0.00 | 0.00 | 78 | 1016.4 |
| 20260506113731 | 69 | 219 | 7.0 | 15.0 | 0.00 | 0.00 | 0.00 | 78 | 1016.3 |
| 20260506113231 | 68 | 188 | 8.0 | 15.0 | 0.00 | 0.00 | 0.00 | 78 | 1016.4 |
| 20260506112731 | 68 | 176 | 7.0 | 16.0 | 0.00 | 0.00 | 0.00 | 78 | 1016.4 |
| 20260506112446 | 68 | 176 | 6.0 | 16.0 | 0.00 | 0.00 | 0.00 | 79 | 1016.2 |
| 20260506111731 | 67 | 172 | 6.0 | 14.0 | 0.00 | 0.00 | 0.00 | 79 | 1016.3 |
| 20260506111233 | 67 | 221 | 7.0 | 14.0 | 0.00 | 0.00 | 0.00 | 79 | 1016.4 |
| 20260506110733 | 67 | 145 | 7.0 | 13.0 | 0.00 | 0.00 | 0.00 | 79 | 1016.4 |
| 20260506110448 | 67 | 143 | 6.0 | 13.0 | 0.00 | 0.00 | 0.00 | 79 | 1016.3 |
| 20260506105734 | 67 | 165 | 5.0 | 13.0 | 0.00 | 0.00 | 0.00 | 80 | 1016.5 |
| 20260506105231 | 67 | 189 | 6.0 | 11.0 | 0.00 | 0.00 | 0.00 | 80 | 1016.4 |
| 20260506104725 | 66 | 113 | 6.0 | 13.0 | 0.00 | 0.00 | 0.00 | 80 | 1016.3 |
| 20260506104226 | 66 | 187 | 6.0 | 13.0 | 0.00 | 0.00 | 0.00 | 81 | 1016.3 |
| 20260506103726 | 66 | 176 | 5.0 | 13.0 | 0.00 | 0.00 | 0.00 | 81 | 1016.2 |
| 20260506103226 | 66 | 160 | 5.0 | 12.0 | 0.00 | 0.00 | 0.00 | 81 | 1016.0 |
| 20260506102725 | 66 | 160 | 5.0 | 12.0 | 0.00 | 0.00 | 0.00 | 81 | 1016.0 |
| 20260506102226 | 65 | 158 | 5.0 | 11.0 | 0.00 | 0.00 | 0.00 | 81 | 1016.0 |
| 20260506101726 | 65 | 186 | 6.0 | 12.0 | 0.00 | 0.00 | 0.00 | 82 | 1016.0 |
| 20260506101226 | 65 | 219 | 5.0 | 12.0 | 0.00 | 0.00 | 0.00 | 82 | 1016.0 |
| 20260506100726 | 65 | 205 | 5.0 | 14.0 | 0.00 | 0.00 | 0.00 | 82 | 1016.0 |
| 20260506100226 | 65 | 202 | 6.0 | 14.0 | 0.00 | 0.00 | 0.00 | 82 | 1016.0 |
| 20260506095726 | 65 | 187 | 6.0 | 13.0 | 0.00 | 0.00 | 0.00 | 82 | 1016.1 |
| 20260506095225 | 65 | 191 | 5.0 | 13.0 | 0.00 | 0.00 | 0.00 | 82 | 1016.1 |
| 20260506094726 | 65 | 174 | 5.0 | 11.0 | 0.00 | 0.00 | 0.00 | 82 | 1016.0 |
| 20260506094226 | 65 | 181 | 5.0 | 11.0 | 0.00 | 0.00 | 0.00 | 82 | 1016.0 |
| 20260506093941 | 65 | 179 | 5.0 | 11.0 | 0.00 | 0.00 | 0.00 | 82 | 1016.2 |
| 20260506093225 | 65 | 83 | 5.0 | 11.0 | 0.00 | 0.00 | 0.00 | 81 | 1016.2 |
| 20260506092726 | 65 | 179 | 4.0 | 10.0 | 0.00 | 0.00 | 0.00 | 82 | 1016.3 |
| 20260506092226 | 65 | 219 | 4.0 | 12.0 | 0.00 | 0.00 | 0.00 | 81 | 1016.3 |
| 20260506091940 | 65 | 238 | 4.0 | 12.0 | 0.00 | 0.00 | 0.00 | 81 | 1016.3 |
| 20260506091226 | 65 | 181 | 4.0 | 9.0 | 0.00 | 0.00 | 0.00 | 81 | 1016.3 |
| 20260506090941 | 65 | 178 | 5.0 | 12.0 | 0.00 | 0.00 | 0.00 | 81 | 1016.3 |
| 20260506090225 | 65 | 167 | 4.0 | 12.0 | 0.00 | 0.00 | 0.00 | 81 | 1016.3 |
| 20260506085726 | 65 | 200 | 4.0 | 9.0 | 0.00 | 0.00 | 0.00 | 81 | 1016.2 |
| 20260506085225 | 65 | 212 | 4.0 | 9.0 | 0.00 | 0.00 | 0.00 | 81 | 1016.3 |
| 20260506084723 | 65 | 256 | 5.0 | 12.0 | 0.00 | 0.00 | 0.00 | 81 | 1016.2 |
| 20260506084224 | 65 | 204 | 5.0 | 12.0 | 0.00 | 0.00 | 0.00 | 81 | 1016.1 |
| 20260506083726 | 65 | 225 | 5.0 | 11.0 | 0.00 | 0.00 | 0.00 | 81 | 1016.1 |
| 20260506083437 | 65 | 165 | 5.0 | 11.0 | 0.00 | 0.00 | 0.00 | 81 | 1016.0 |
| 20260506082724 | 65 | 187 | 4.0 | 11.0 | 0.00 | 0.00 | 0.00 | 81 | 1016.1 |
| 20260506082224 | 65 | 220 | 4.0 | 10.0 | 0.00 | 0.00 | 0.00 | 82 | 1016.0 |
| 20260506081721 | 65 | 131 | 4.0 | 10.0 | 0.00 | 0.00 | 0.00 | 82 | 1016.0 |
| 20260506081221 | 65 | 160 | 5.0 | 11.0 | 0.00 | 0.00 | 0.00 | 82 | 1016.0 |
| 20260506080721 | 65 | 224 | 6.0 | 11.0 | 0.00 | 0.00 | 0.00 | 82 | 1015.9 |
| 20260506080221 | 65 | 195 | 5.0 | 11.0 | 0.00 | 0.00 | 0.00 | 81 | 1015.9 |
| 20260506073427 | 65 | 199 | 4.0 | 9.0 | 0.00 | 0.00 | 0.00 | 80 | 1016.3 |
| 20260506072716 | 65 | 243 | 4.0 | 11.0 | 0.00 | 0.00 | 0.00 | 80 | 1016.2 |
| 20260506072216 | 65 | 147 | 4.0 | 11.0 | 0.00 | 0.00 | 0.00 | 80 | 1016.1 |
| 20260506071716 | 65 | 190 | 4.0 | 9.0 | 0.00 | 0.00 | 0.00 | 80 | 1016.2 |
| 20260506071216 | 65 | 153 | 4.0 | 8.0 | 0.00 | 0.00 | 0.00 | 80 | 1016.2 |
| 20260506070715 | 65 | 156 | 4.0 | 8.0 | 0.00 | 0.00 | 0.00 | 80 | 1016.2 |
| 20260506070216 | 65 | 319 | 4.0 | 10.0 | 0.00 | 0.00 | 0.00 | 80 | 1016.3 |
| 20260506062212 | 65 | 14 | 4.0 | 10.0 | 0.00 | 0.00 | 0.00 | 80 | 1016.6 |
| 20260506061714 | 65 | 245 | 4.0 | 10.0 | 0.00 | 0.00 | 0.00 | 81 | 1016.7 |
| 20260506061425 | 65 | 257 | 3.0 | 10.0 | 0.00 | 0.00 | 0.00 | 81 | 1016.8 |
| 20260506060712 | 65 | 197 | 2.0 | 9.0 | 0.00 | 0.00 | 0.00 | 81 | 1016.8 |
| 20260506060207 | 65 | 152 | 2.0 | 7.0 | 0.00 | 0.00 | 0.00 | 81 | 1016.9 |
| 20260506051206 | 65 | 196 | 4.0 | 10.0 | 0.00 | 0.00 | 0.00 | 80 | 1017.2 |
| 20260506050702 | 65 | 206 | 3.0 | 10.0 | 0.00 | 0.00 | 0.00 | 80 | 1017.1 |
| 20260506050204 | 66 | 155 | 3.0 | 11.0 | 0.00 | 0.00 | 0.00 | 80 | 1017.2 |
| 20260506044704 | 66 | 219 | 4.0 | 11.0 | 0.00 | 0.00 | 0.00 | 80 | 1017.2 |
| 20260506044205 | 66 | 174 | 4.0 | 10.0 | 0.00 | 0.00 | 0.00 | 80 | 1017.4 |
| 20260506043701 | 66 | 168 | 4.0 | 13.0 | 0.00 | 0.00 | 0.00 | 80 | 1017.3 |
| 20260506043409 | 66 | 282 | 4.0 | 13.0 | 0.00 | 0.00 | 0.00 | 80 | 1017.3 |
| 20260506042657 | 66 | 115 | 4.0 | 10.0 | 0.00 | 0.00 | 0.00 | 80 | 1017.3 |
| 20260506042157 | 66 | 183 | 5.0 | 12.0 | 0.00 | 0.00 | 0.00 | 80 | 1017.3 |
| 20260506041651 | 66 | 214 | 4.0 | 12.0 | 0.00 | 0.00 | 0.00 | 80 | 1017.3 |
| 20260506041145 | 66 | 307 | 5.0 | 13.0 | 0.00 | 0.00 | 0.00 | 81 | 1017.3 |
| 20260506040639 | 66 | 108 | 4.0 | 13.0 | 0.00 | 0.00 | 0.00 | 81 | 1017.4 |
| 20260506040133 | 66 | 265 | 4.0 | 11.0 | 0.00 | 0.00 | 0.00 | 81 | 1017.4 |
| 20260506035631 | 66 | 307 | 5.0 | 11.0 | 0.00 | 0.00 | 0.00 | 81 | 1017.4 |
| 20260506035131 | 66 | 143 | 4.0 | 11.0 | 0.00 | 0.00 | 0.00 | 81 | 1017.4 |
| 20260506034633 | 66 | 166 | 5.0 | 11.0 | 0.00 | 0.00 | 0.00 | 81 | 1017.3 |
| 20260506034129 | 66 | 166 | 5.0 | 13.0 | 0.00 | 0.00 | 0.00 | 81 | 1017.3 |
| 20260506033629 | 66 | 179 | 5.0 | 13.0 | 0.00 | 0.00 | 0.00 | 81 | 1017.3 |
| 20260506033129 | 66 | 181 | 5.0 | 13.0 | 0.00 | 0.00 | 0.00 | 81 | 1017.3 |
| 20260506032630 | 66 | 200 | 4.0 | 12.0 | 0.00 | 0.00 | 0.00 | 81 | 1017.4 |
| 20260506032129 | 66 | 231 | 5.0 | 13.0 | 0.00 | 0.00 | 0.00 | 81 | 1017.5 |
| 20260506031629 | 67 | 223 | 4.0 | 14.0 | 0.00 | 0.00 | 0.00 | 81 | 1017.4 |
| 20260506031129 | 67 | 227 | 5.0 | 14.0 | 0.00 | 0.00 | 0.00 | 81 | 1017.4 |
| 20260506030629 | 67 | 123 | 5.0 | 14.0 | 0.00 | 0.00 | 0.00 | 80 | 1017.4 |
| 20260506030128 | 67 | 187 | 5.0 | 14.0 | 0.00 | 0.00 | 0.00 | 80 | 1017.4 |
| 20260506025629 | 67 | 200 | 5.0 | 14.0 | 0.00 | 0.00 | 0.00 | 80 | 1017.5 |
| 20260506025343 | 67 | 205 | 5.0 | 14.0 | 0.00 | 0.00 | 0.00 | 80 | 1017.3 |
| 20260506024841 | 67 | 195 | 5.0 | 13.0 | 0.00 | 0.00 | 0.00 | 80 | 1017.3 |
| 20260506024354 | 67 | 174 | 6.0 | 13.0 | 0.00 | 0.00 | 0.00 | 80 | 1017.3 |
| 20260506024129 | 67 | 174 | 6.0 | 13.0 | 0.00 | 0.00 | 0.00 | 80 | 1017.3 |
| 20260506023632 | 67 | 172 | 6.0 | 13.0 | 0.00 | 0.00 | 0.00 | 80 | 1017.3 |
| 20260506023126 | 67 | 189 | 6.0 | 14.0 | 0.00 | 0.00 | 0.00 | 80 | 1017.3 |
| 20260506022621 | 67 | 259 | 7.0 | 16.0 | 0.00 | 0.00 | 0.00 | 79 | 1017.4 |
| 20260506022117 | 67 | 221 | 7.0 | 16.0 | 0.00 | 0.00 | 0.00 | 79 | 1017.3 |
| 20260506021818 | 67 | 205 | 6.0 | 16.0 | 0.00 | 0.00 | 0.00 | 79 | 1017.4 |
| 20260506021106 | 67 | 154 | 6.0 | 16.0 | 0.00 | 0.00 | 0.00 | 80 | 1017.5 |
| 20260506020609 | 67 | 207 | 6.0 | 16.0 | 0.00 | 0.00 | 0.00 | 79 | 1017.5 |
| 20260506020109 | 67 | 169 | 6.0 | 16.0 | 0.00 | 0.00 | 0.00 | 79 | 1017.5 |
| 20260506015607 | 67 | 194 | 6.0 | 13.0 | 0.00 | 0.00 | 0.00 | 79 | 1017.5 |
| 20260506015106 | 67 | 178 | 5.0 | 12.0 | 0.00 | 0.00 | 0.00 | 79 | 1017.5 |
| 20260506014604 | 68 | 164 | 5.0 | 14.0 | 0.00 | 0.00 | 0.00 | 79 | 1017.6 |
| 20260506014103 | 68 | 273 | 5.0 | 14.0 | 0.00 | 0.00 | 0.00 | 79 | 1017.5 |
| 20260506013603 | 68 | 133 | 6.0 | 15.0 | 0.00 | 0.00 | 0.00 | 79 | 1017.6 |
| 20260506013102 | 68 | 250 | 6.0 | 15.0 | 0.00 | 0.00 | 0.00 | 79 | 1017.4 |
| 20260506012603 | 68 | 231 | 5.0 | 13.0 | 0.00 | 0.00 | 0.00 | 78 | 1017.4 |
| 20260506012102 | 68 | 191 | 5.0 | 12.0 | 0.00 | 0.00 | 0.00 | 78 | 1017.4 |
| 20260506011602 | 68 | 296 | 5.0 | 12.0 | 0.00 | 0.00 | 0.00 | 78 | 1017.3 |
| 20260506011317 | 68 | 208 | 5.0 | 15.0 | 0.00 | 0.00 | 0.00 | 78 | 1017.4 |
| 20260506010820 | 68 | 188 | 6.0 | 15.0 | 0.00 | 0.00 | 0.00 | 77 | 1017.2 |
| 20260506010317 | 68 | 248 | 6.0 | 14.0 | 0.00 | 0.00 | 0.00 | 77 | 1017.1 |
| 20260506005609 | 69 | 160 | 4.0 | 12.0 | 0.00 | 0.00 | 0.00 | 77 | 1017.2 |
| 20260506005106 | 69 | 141 | 5.0 | 12.0 | 0.00 | 0.00 | 0.00 | 76 | 1017.1 |
| 20260506004606 | 69 | 194 | 5.0 | 19.0 | 0.00 | 0.00 | 0.00 | 75 | 1017.3 |
| 20260506004059 | 69 | 174 | 5.0 | 19.0 | 0.00 | 0.00 | 0.00 | 75 | 1017.1 |
| 20260506003553 | 69 | 183 | 5.0 | 17.0 | 0.00 | 0.00 | 0.00 | 74 | 1016.9 |
| 20260506003300 | 69 | 216 | 6.0 | 17.0 | 0.00 | 0.00 | 0.00 | 73 | 1016.9 |
| 20260506002538 | 69 | 108 | 6.0 | 15.0 | 0.00 | 0.00 | 0.00 | 73 | 1016.8 |
| 20260506002034 | 69 | 257 | 6.0 | 15.0 | 0.00 | 0.00 | 0.00 | 73 | 1016.8 |
| 20260506001531 | 69 | 102 | 5.0 | 13.0 | 0.00 | 0.00 | 0.00 | 72 | 1016.8 |
| 20260506001031 | 69 | 233 | 5.0 | 14.0 | 0.00 | 0.00 | 0.00 | 72 | 1016.8 |
| 20260506000531 | 69 | 174 | 5.0 | 14.0 | 0.00 | 0.00 | 0.00 | 72 | 1016.7 |
| 20260506000029 | 69 | 176 | 5.0 | 14.0 | 0.00 | 0.00 | 0.00 | 72 | 1016.6 |
| 20260505235529 | 70 | 175 | 5.0 | 13.0 | 0.00 | 0.00 | 0.00 | 71 | 1016.7 |
| 20260505235029 | 70 | 219 | 5.0 | 14.0 | 0.00 | 0.00 | 0.00 | 71 | 1016.7 |
| 20260505234530 | 70 | 316 | 6.0 | 15.0 | 0.00 | 0.00 | 0.00 | 70 | 1016.9 |
| 20260505234030 | 70 | 269 | 6.0 | 15.0 | 0.00 | 0.00 | 0.00 | 70 | 1016.8 |
| 20260505233529 | 71 | 172 | 6.0 | 15.0 | 0.00 | 0.00 | 0.00 | 69 | 1016.6 |
| 20260505233029 | 71 | 254 | 6.0 | 15.0 | 0.00 | 0.00 | 0.00 | 68 | 1016.6 |
| 20260505232529 | 71 | 300 | 5.0 | 14.0 | 0.00 | 0.00 | 0.00 | 67 | 1016.5 |
| 20260505232030 | 72 | 131 | 6.0 | 14.0 | 0.00 | 0.00 | 0.00 | 67 | 1016.6 |
| 20260505231529 | 72 | 181 | 7.0 | 15.0 | 0.00 | 0.00 | 0.00 | 67 | 1016.3 |
| 20260505231031 | 72 | 191 | 8.0 | 17.0 | 0.00 | 0.00 | 0.00 | 68 | 1016.3 |
| 20260505230529 | 71 | 203 | 8.0 | 17.0 | 0.00 | 0.00 | 0.00 | 68 | 1016.3 |
| 20260505230030 | 71 | 174 | 6.0 | 17.0 | 0.00 | 0.00 | 0.00 | 67 | 1016.4 |
| 20260505225526 | 71 | 174 | 6.0 | 17.0 | 0.00 | 0.00 | 0.00 | 67 | 1016.5 |
| 20260505225233 | 72 | 219 | 6.0 | 18.0 | 0.00 | 0.00 | 0.00 | 66 | 1016.4 |
| 20260505224517 | 72 | 238 | 6.0 | 18.0 | 0.00 | 0.00 | 0.00 | 66 | 1016.4 |
| 20260505224011 | 72 | 246 | 6.0 | 17.0 | 0.00 | 0.00 | 0.00 | 66 | 1016.4 |
| 20260505223508 | 72 | 229 | 7.0 | 21.0 | 0.00 | 0.00 | 0.00 | 66 | 1016.5 |
| 20260505223009 | 73 | 113 | 6.0 | 21.0 | 0.00 | 0.00 | 0.00 | 66 | 1016.4 |
| 20260505222508 | 73 | 170 | 6.0 | 18.0 | 0.00 | 0.00 | 0.00 | 65 | 1016.4 |
| 20260505222006 | 73 | 168 | 8.0 | 22.0 | 0.00 | 0.00 | 0.00 | 64 | 1016.4 |
| 20260505221719 | 74 | 287 | 8.0 | 22.0 | 0.00 | 0.00 | 0.00 | 63 | 1016.5 |
| 20260505221007 | 74 | 243 | 6.0 | 17.0 | 0.00 | 0.00 | 0.00 | 62 | 1016.5 |
| 20260505220714 | 74 | 229 | 7.0 | 20.0 | 0.00 | 0.00 | 0.00 | 61 | 1016.4 |
| 20260505220218 | 75 | 193 | 8.0 | 20.0 | 0.00 | 0.00 | 0.00 | 61 | 1016.4 |
| 20260505215503 | 75 | 264 | 8.0 | 18.0 | 0.00 | 0.00 | 0.00 | 60 | 1016.3 |
| 20260505215005 | 75 | 184 | 8.0 | 18.0 | 0.00 | 0.00 | 0.00 | 59 | 1016.4 |
| 20260505214502 | 75 | 181 | 8.0 | 18.0 | 0.00 | 0.00 | 0.00 | 59 | 1016.5 |
| 20260505214001 | 76 | 184 | 7.0 | 16.0 | 0.00 | 0.00 | 0.00 | 58 | 1016.3 |
| 20260505213502 | 76 | 311 | 9.0 | 18.0 | 0.00 | 0.00 | 0.00 | 59 | 1016.3 |
| 20260505213215 | 76 | 172 | 10.0 | 19.0 | 0.00 | 0.00 | 0.00 | 58 | 1016.3 |
| 20260505212504 | 76 | 182 | 11.0 | 20.0 | 0.00 | 0.00 | 0.00 | 58 | 1016.3 |
| 20260505212001 | 76 | 181 | 9.0 | 20.0 | 0.00 | 0.00 | 0.00 | 58 | 1016.3 |
| 20260505211504 | 76 | 172 | 8.0 | 17.0 | 0.00 | 0.00 | 0.00 | 59 | 1016.3 |
| 20260505211001 | 76 | 201 | 9.0 | 18.0 | 0.00 | 0.00 | 0.00 | 60 | 1016.3 |
| 20260505210507 | 76 | 177 | 9.0 | 18.0 | 0.00 | 0.00 | 0.00 | 59 | 1016.2 |
| 20260505210007 | 77 | 169 | 8.0 | 16.0 | 0.00 | 0.00 | 0.00 | 60 | 1016.3 |
| 20260505205507 | 77 | 123 | 7.0 | 16.0 | 0.00 | 0.00 | 0.00 | 60 | 1016.4 |
| 20260505205004 | 77 | 125 | 8.0 | 19.0 | 0.00 | 0.00 | 0.00 | 60 | 1016.5 |
| 20260505204502 | 77 | 311 | 10.0 | 21.0 | 0.00 | 0.00 | 0.00 | 60 | 1016.3 |
| 20260505204001 | 77 | 212 | 8.0 | 21.0 | 0.00 | 0.00 | 0.00 | 60 | 1016.4 |
| 20260505203502 | 77 | 212 | 7.0 | 20.0 | 0.00 | 0.00 | 0.00 | 60 | 1016.5 |
| 20260505203001 | 77 | 90 | 8.0 | 20.0 | 0.00 | 0.00 | 0.00 | 61 | 1016.6 |
| 20260505202504 | 77 | 347 | 8.0 | 19.0 | 0.00 | 0.00 | 0.00 | 61 | 1016.5 |
| 20260505202002 | 77 | 176 | 9.0 | 23.0 | 0.00 | 0.00 | 0.00 | 61 | 1016.6 |
| 20260505201715 | 77 | 179 | 9.0 | 23.0 | 0.00 | 0.00 | 0.00 | 61 | 1016.6 |
| 20260505201001 | 77 | 181 | 9.0 | 18.0 | 0.00 | 0.00 | 0.00 | 62 | 1016.6 |
| 20260505200716 | 76 | 188 | 10.0 | 20.0 | 0.00 | 0.00 | 0.00 | 62 | 1016.6 |
| 20260505200219 | 77 | 165 | 10.0 | 20.0 | 0.00 | 0.00 | 0.00 | 62 | 1016.7 |
| 20260505195506 | 77 | 140 | 10.0 | 23.0 | 0.00 | 0.00 | 0.00 | 63 | 1016.8 |
| 20260505195004 | 77 | 176 | 9.0 | 23.0 | 0.00 | 0.00 | 0.00 | 63 | 1016.7 |
| 20260505194504 | 77 | 205 | 9.0 | 18.0 | 0.00 | 0.00 | 0.00 | 63 | 1016.7 |
| 20260505194001 | 77 | 190 | 9.0 | 19.0 | 0.00 | 0.00 | 0.00 | 64 | 1016.9 |
| 20260505193501 | 76 | 185 | 10.0 | 19.0 | 0.00 | 0.00 | 0.00 | 63 | 1016.9 |
| 20260505193001 | 76 | 159 | 11.0 | 20.0 | 0.00 | 0.00 | 0.00 | 63 | 1016.9 |
| 20260505192501 | 76 | 187 | 11.0 | 20.0 | 0.00 | 0.00 | 0.00 | 63 | 1016.9 |
| 20260505192001 | 77 | 172 | 11.0 | 19.0 | 0.00 | 0.00 | 0.00 | 62 | 1017.0 |
| 20260505191501 | 77 | 195 | 10.0 | 19.0 | 0.00 | 0.00 | 0.00 | 63 | 1017.0 |
| 20260505191001 | 78 | 177 | 9.0 | 16.0 | 0.00 | 0.00 | 0.00 | 62 | 1017.0 |
| 20260505190506 | 77 | 174 | 8.0 | 16.0 | 0.00 | 0.00 | 0.00 | 62 | 1016.9 |
| 20260505190002 | 77 | 167 | 8.0 | 18.0 | 0.00 | 0.00 | 0.00 | 61 | 1016.9 |
| 20260505185501 | 77 | 202 | 10.0 | 22.0 | 0.00 | 0.00 | 0.00 | 61 | 1017.2 |
| 20260505185001 | 77 | 182 | 10.0 | 22.0 | 0.00 | 0.00 | 0.00 | 60 | 1017.2 |
| 20260505184502 | 78 | 201 | 7.0 | 17.0 | 0.00 | 0.00 | 0.00 | 59 | 1017.1 |
| 20260505184001 | 77 | 285 | 6.0 | 15.0 | 0.00 | 0.00 | 0.00 | 60 | 1017.3 |
| 20260505183503 | 78 | 302 | 6.0 | 14.0 | 0.00 | 0.00 | 0.00 | 59 | 1017.3 |
| 20260505183212 | 78 | 204 | 6.0 | 15.0 | 0.00 | 0.00 | 0.00 | 60 | 1017.4 |
| 20260505182504 | 77 | 309 | 7.0 | 15.0 | 0.00 | 0.00 | 0.00 | 60 | 1017.4 |
| 20260505182218 | 77 | 207 | 8.0 | 15.0 | 0.00 | 0.00 | 0.00 | 58 | 1017.5 |
| 20260505181459 | 77 | 143 | 8.0 | 17.0 | 0.00 | 0.00 | 0.00 | 57 | 1017.5 |
| 20260505181204 | 77 | 311 | 7.0 | 17.0 | 0.00 | 0.00 | 0.00 | 57 | 1017.4 |
| 20260505180657 | 77 | 292 | 6.0 | 14.0 | 0.00 | 0.00 | 0.00 | 58 | 1017.5 |
| 20260505175938 | 77 | 109 | 7.0 | 17.0 | 0.00 | 0.00 | 0.00 | 57 | 1017.5 |
| 20260505175648 | 77 | 195 | 7.0 | 17.0 | 0.00 | 0.00 | 0.00 | 55 | 1017.6 |
| 20260505175145 | 77 | 225 | 6.0 | 13.0 | 0.00 | 0.00 | 0.00 | 55 | 1017.6 |
| 20260505174432 | 77 | 141 | 8.0 | 16.0 | 0.00 | 0.00 | 0.00 | 58 | 1017.6 |
| 20260505174146 | 77 | 193 | 7.0 | 16.0 | 0.00 | 0.00 | 0.00 | 56 | 1017.6 |
| 20260505173431 | 78 | 300 | 6.0 | 14.0 | 0.00 | 0.00 | 0.00 | 53 | 1017.7 |
| 20260505172931 | 77 | 290 | 6.0 | 15.0 | 0.00 | 0.00 | 0.00 | 54 | 1017.8 |
| 20260505172433 | 77 | 311 | 6.0 | 15.0 | 0.00 | 0.00 | 0.00 | 55 | 1017.7 |
| 20260505171931 | 77 | 314 | 6.0 | 11.0 | 0.00 | 0.00 | 0.00 | 56 | 1017.7 |
| 20260505171433 | 77 | 301 | 6.0 | 11.0 | 0.00 | 0.00 | 0.00 | 56 | 1017.7 |
| 20260505170935 | 77 | 307 | 5.0 | 13.0 | 0.00 | 0.00 | 0.00 | 56 | 1017.8 |
| 20260505170429 | 77 | 322 | 5.0 | 13.0 | 0.00 | 0.00 | 0.00 | 56 | 1017.7 |
| 20260505165930 | 77 | 136 | 6.0 | 13.0 | 0.00 | 0.00 | 0.00 | 57 | 1017.7 |
| 20260505165429 | 77 | 291 | 7.0 | 13.0 | 0.00 | 0.00 | 0.00 | 56 | 1017.7 |
| 20260505164933 | 76 | 302 | 7.0 | 12.0 | 0.00 | 0.00 | 0.00 | 56 | 1017.8 |
| 20260505164429 | 76 | 311 | 6.0 | 17.0 | 0.00 | 0.00 | 0.00 | 57 | 1017.9 |
| 20260505163929 | 76 | 288 | 6.0 | 17.0 | 0.00 | 0.00 | 0.00 | 58 | 1018.0 |
| 20260505163431 | 75 | 293 | 7.0 | 13.0 | 0.00 | 0.00 | 0.00 | 59 | 1017.9 |
| 20260505163143 | 75 | 281 | 7.0 | 13.0 | 0.00 | 0.00 | 0.00 | 59 | 1017.9 |
| 20260505162429 | 75 | 291 | 6.0 | 13.0 | 0.00 | 0.00 | 0.00 | 59 | 1018.1 |
| 20260505161930 | 75 | 297 | 7.0 | 13.0 | 0.00 | 0.00 | 0.00 | 59 | 1018.2 |
| 20260505161428 | 75 | 289 | 7.0 | 13.0 | 0.00 | 0.00 | 0.00 | 60 | 1018.2 |
| 20260505160929 | 75 | 290 | 5.0 | 12.0 | 0.00 | 0.00 | 0.00 | 59 | 1018.1 |
| 20260505160429 | 75 | 262 | 5.0 | 12.0 | 0.00 | 0.00 | 0.00 | 59 | 1018.2 |
| 20260505152929 | 73 | 315 | 6.0 | 12.0 | 0.00 | 0.00 | 0.00 | 62 | 1018.5 |
| 20260505152429 | 73 | 269 | 6.0 | 12.0 | 0.00 | 0.00 | 0.00 | 62 | 1018.4 |
| 20260505151938 | 73 | 216 | 5.0 | 14.0 | 0.00 | 0.00 | 0.00 | 63 | 1018.4 |
| 20260505151642 | 73 | 247 | 7.0 | 15.0 | 0.00 | 0.00 | 0.00 | 63 | 1018.3 |
| 20260505150929 | 72 | 131 | 8.0 | 15.0 | 0.00 | 0.00 | 0.00 | 64 | 1018.5 |
| 20260505150428 | 73 | 284 | 7.0 | 14.0 | 0.00 | 0.00 | 0.00 | 64 | 1018.6 |
| 20260505140626 | 70 | 309 | 8.0 | 15.0 | 0.00 | 0.00 | 0.00 | 69 | 1018.5 |
| 20260505140404 | 70 | 342 | 8.0 | 15.0 | 0.00 | 0.00 | 0.00 | 69 | 1018.5 |
| 20260505124901 | 67 | 290 | 5.0 | 12.0 | 0.00 | 0.00 | 0.00 | 76 | 1018.5 |
| 20260505124401 | 67 | 302 | 5.0 | 12.0 | 0.00 | 0.00 | 0.00 | 77 | 1018.4 |
| 20260505124114 | 66 | 314 | 6.0 | 15.0 | 0.00 | 0.00 | 0.00 | 77 | 1018.4 |